STARLINK-34943, 65366

Orbit data source: Space-Track

STARLINK-34943, 65366 is a payload satellite owned by SpaceX/Seattle (US) in LEO that was launched on Thu, 28 Aug 2025 UTC via an FALCON 9 launch vehicle from the Air Force Eastern Test Range (AFETR). Payload-class satellites include a variety of spacecraft equipped with specific instruments for various scientific and technological missions. These include communications satellites like Starlink; space stations such as the ISS; scientific satellites like the Hubble; Earth observation satellites from companies like Planet Labs, Umbra, and HawkEye 360; GPS; miniature CubeSats for education and research; and military/defense satellites.

Loading next visibility...
Identifier
65366, 2025-190R
Orbit
LEO
Country
Flag of USUS
Related business
Manufacturer
SpaceX/Seattle
Mission
Operational Commercial Communications
Bus & Motor
STARLINK V2MO, Unknown motor
Mass
575 kg wet, ~530 kg dry
Launch date (UTC)
2025-08-28 (7 months ago)
Launch vehicle
FALCON 9
Launch site
Air Force Eastern Test Range (AFETR)
Object type
Payload
Rocket body
Debris
Shape & HBR
Box + 2 Pan, 17.7 m
Radar Cross Section
36.964 m², Large (>1 m²)

Expand to show TLE details & history
Last TLE update: 14 hours ago

TLE from 14 hours ago
0 STARLINK-34943
1 65366U 25190R   26094.17332837  .00056943  00000-0  19185-2 0  9991
2 65366  53.1594  50.0379 0001188  74.0925 286.0207 15.30225609 33187
Epoch: 2026-04-04T04:09Z
TLE epoch observation values (Epoch: 2026-04-04T04:09:35.571Z)
Latitude
0.00002°
Longitude
155.1428°
Altitude
475.814 km
Speed
7.629 km/s
True Right ascension
03h 20m 09s
True Declination
0° 00' 00"
Sunlit
Object was in daylight at epoch
Visualization orbit readout
Latitude
Unknown
Longitude
Unknown
Altitude
Unknown
Speed
Unknown
Apparent Right ascension
Unknown
Apparent Declination
Unknown
Sunlit
N/A
Visualization observer readout
Local Sidereal Time
00:08:21
Azimuth
Unknown
Elevation
Unknown
Doppler factor
Unknown
Orbital elements
Apogee altitude
476.209 km
Perigee altitude
474.581 km
Semi-major axis
6,853.532 km
Eccentricity
0.00012
Inclination
53.1594°
RAAN
50.0379°
Arg. of periapsis
74.0925°
True anomaly
286.00761°
Mean anomaly
286.0207°
Eccentric anomaly
286.01416°
Mean motion
3.82535 °/min
Orbital period
94.11 mins
BSTAR
0.0019185
Loading maneuver chart data...
Computing Atmospheric mass density...
Loading historical data...
Loading historical data...
Loading historical data...
Loading historical data...
Loading historical data...
Loading historical data...
Loading historical data...

Documentation

Showing up to 5 results
|